STARLINK-1833 (46759 NORAD) Tracking and Keplerian Element Data

This shows tracking and keplerian element data for the satellite.

Feedback or suggestion? Click here.




ElementValue
Catalog46759
NameSTARLINK-1833
Epoch Orbit178
Epoch Day330.91667824
Epoch Year2020
RAAN2.3929
Inclination53.055
Eccentricity0.0001109
Argument of Perigee77.9933
Mean Anonmoly294.5949
Mean Motion15.45924057
Decay Rate-0.01077645
L11 46759U 20074W 20330.91667824 -.01077645 00000-0 -24073-1 0 9994
L22 46759 53.0550 2.3929 0001109 77.9933 294.5949 15.45924057 1785

Live tracking and technical data element details for STARLINK-1833 (NORAD 46759). STARLINK-1833 can be tracked NOW for your location showing map with azimuth and elevation plus other details from your city location.

Track the satellite on the map from your city or location and see movement details for azimuth, elevation, latitude, longitude, range, height, and movement on the map or in text.







IsCatalogInMostPopularTable: catalog: 46759, numindb: 5
Update: records affected: 1



GetName: 46759 STARLINK-1833

Hit Count: updated at: Thu, 26 Nov 2020 20:14:15 GMT